Kelowna, British Columbia

6:26 AM PDT on July 27, 2017 (GMT -0700)
Kelowna

Weather History for CYLW - September, 2012

Change the Weather History Date:

Tuesday, September 25, 2012

  Actual Average Record
Temperature  
Mean Temperature 60 °F -  
Max Temperature 73 °F 56 °F 80 °F (2003)
Min Temperature 46 °F 34 °F 30 °F (1996)
Degree Days  
Heating Degree Days 6    
Growing Degree Days 10 (Base 50)    
Moisture  
Dew Point 47 °F    
Average Humidity 56    
Maximum Humidity 76    
Minimum Humidity 27    
Precipitation  
Precipitation 0.00 in 0.03 in - ()
Sea Level Pressure  
Sea Level Pressure 30.00 in    
Wind  
Wind Speed 4 mph ()    
Max Wind Speed 10 mph    
Max Gust Speed -    
Visibility 9.1 miles    
Events      
Averages and records for this station are not official NWS values.
T = Trace of Precipitation, MM = Missing Value Source: Averaged Metar Reports

Daily Weather History Graph

Daily Weather History Graph

Search for Another Location

Airport or City:

Trip Planner

Search our weather history database for the weather conditions in past years. The results will help you decide how hot, cold, wet, or windy it might be!

Date:

Astronomy

Sep. 25, 2012 Rise Set
Actual Time 6:49 AM PDT 6:47 PM PDT
Civil Twilight 6:17 AM PDT 7:19 PM PDT
Nautical Twilight 5:39 AM PDT 7:57 PM PDT
Astronomical Twilight 5:00 AM PDT 8:36 PM PDT
Moon 4:34 PM PDT (9/25) 1:53 AM PDT (9/25)
Length of Visible Light 13h 02m
Length of Day
11h 58m
Waxing Gibbous, 81% of the Moon is Illuminated
Sep 25
Waxing Gibbous
Sep 29
Full
Oct 8
Last Quarter
Oct 15
New
Oct 21
First Quarter

Hourly Weather History & Observations

Time (PDT) Temp. Windchill Dew Point Humidity Pressure Visibility Wind Dir Wind Speed Gust Speed Precip Events Conditions
12:00 AM 59.0 °F - 46.4 °F 63% 29.93 in 9.0 mi Calm Calm - N/A   Mostly Cloudy
1:00 AM 59.0 °F - 46.4 °F 63% 29.93 in 9.0 mi NNW 3.5 mph - N/A   Mostly Cloudy
2:00 AM 59.0 °F - 46.4 °F 63% 29.94 in 9.0 mi SSE 3.5 mph - N/A   Mostly Cloudy
3:00 AM 64.4 °F - 50.0 °F 59% 29.95 in 9.0 mi SSE 10.4 mph - N/A   Overcast
4:00 AM 64.4 °F - 48.2 °F 56% 29.96 in 9.0 mi SSE 8.1 mph - N/A   Overcast
5:00 AM 63 °F - 49 °F 49% 29.97 in 10 mi SSE 8.1 mph - -  
5:00 AM 62.6 °F - 48.2 °F 59% 29.97 in 9.0 mi SSE 8.1 mph - N/A   Mostly Cloudy
6:00 AM 60.8 °F - 48.2 °F 63% 29.99 in 9.0 mi South 8.1 mph - N/A   Overcast
7:00 AM 60.8 °F - 50.0 °F 68% 30.00 in 9.0 mi Calm Calm - N/A   Overcast
8:00 AM 60.8 °F - 50.0 °F 68% 30.02 in 9.0 mi Calm Calm - N/A   Overcast
9:00 AM 64.4 °F - 48.2 °F 56% 30.03 in 9.0 mi SSE 2.3 mph - N/A   Overcast
10:00 AM 64.4 °F - 48.2 °F 56% 30.03 in 9.0 mi SSE 4.6 mph - N/A   Overcast
11:00 AM 66 °F - 49 °F 43% 30.04 in 10 mi South 3.5 mph - -   Overcast
11:00 AM 66.2 °F - 48.2 °F 52% 30.04 in 9.0 mi South 3.5 mph - N/A   Overcast
12:00 PM 69.8 °F - 48.2 °F 46% 30.03 in 9.0 mi SE 5.8 mph - N/A   Scattered Clouds
1:00 PM 71.6 °F - 48.2 °F 43% 30.02 in 9.0 mi East 3.5 mph - N/A   Overcast
2:00 PM 71.6 °F - 46.4 °F 41% 30.01 in 9.0 mi Variable 4.6 mph - N/A   Clear
3:00 PM 73.4 °F - 46.4 °F 38% 29.98 in 9.0 mi NNW 5.8 mph - N/A   Clear
4:00 PM 73.4 °F - 46.4 °F 38% 29.99 in 9.0 mi NW 9.2 mph - N/A   Partly Cloudy
5:00 PM 72 °F - 45 °F 27% 29.99 in 10 mi NW 6.9 mph - -  
5:00 PM 71.6 °F - 44.6 °F 38% 29.99 in 9.0 mi NW 5.8 mph - N/A   Clear
6:00 PM 69.8 °F - 44.6 °F 40% 29.99 in 9.0 mi NNE 2.3 mph - N/A   Scattered Clouds
7:00 PM 59.0 °F - 48.2 °F 67% 30.01 in 9.0 mi Calm Calm - N/A   Clear
8:00 PM 57.2 °F - 44.6 °F 63% 30.03 in 9.0 mi North 4.6 mph - N/A   Clear
9:00 PM 51.8 °F - 44.6 °F 76% 30.05 in 9.0 mi North 4.6 mph - N/A   Clear
10:00 PM 50.0 °F - 42.8 °F 76% 30.06 in 9.0 mi Calm Calm - N/A   Clear
11:00 PM 46 °F - 39 °F 70% 30.07 in 10 mi NNE 3.5 mph - -  
11:00 PM 46.4 °F 45.2 °F 39.2 °F 76% 30.07 in 9.0 mi North 3.5 mph - N/A   Clear